Location: Lodi
(45.3170°N, 9.5000°E)
Time: 09:56:43
(UTC+01:00)

ISS - Visible Passes

Search period start: 22 January 2019 00:00
Search period end: 01 February 2019 00:00
Orbit: 404 x 410 km, 51.6° (Epoch: 23 January)

Date Brightness Start Highest point End Pass type
(mag) Time Alt. Az. Time Alt. Az. Time Alt. Az.
22 Jan -1.9 19:28:24 10° SW 19:30:01 25° SSW 19:30:01 25° SSW visible
23 Jan -2.7 18:37:28 10° SSW 18:40:22 29° SE 18:41:04 26° ESE visible
23 Jan -0.3 20:13:33 10° W 20:13:48 12° W 20:13:48 12° W visible
24 Jan -1.8 17:46:58 10° S 17:49:11 17° SE 17:51:25 10° E visible
24 Jan -3.2 19:22:05 10° WSW 19:24:46 55° W 19:24:46 55° W visible
25 Jan -3.7 18:30:45 10° SW 18:34:01 64° SSE 18:35:40 26° ENE visible
25 Jan -0.6 20:07:42 10° W 20:08:23 15° WNW 20:08:23 15° WNW visible
26 Jan -3.0 19:16:03 10° W 19:19:13 43° NNW 19:19:13 43° NNW visible
27 Jan -3.6 18:24:30 10° WSW 18:27:46 63° NNW 18:29:59 19° NE visible
27 Jan -0.8 20:01:50 10° WNW 20:02:42 15° WNW 20:02:42 15° WNW visible
28 Jan -2.5 19:10:10 10° WNW 19:13:09 30° NNW 19:13:25 30° N visible
29 Jan -2.8 18:18:29 10° W 18:21:36 38° NNW 18:24:07 14° NE visible
29 Jan -1.0 19:55:51 10° WNW 19:56:49 16° NW 19:56:49 16° NW visible
30 Jan -2.4 19:04:13 10° WNW 19:07:05 26° N 19:07:29 25° N visible
31 Jan -2.4 18:12:31 10° WNW 18:15:27 28° N 18:18:09 11° NE visible
31 Jan -1.3 19:49:37 10° NW 19:50:52 19° NW 19:50:52 19° NW visible
